Skip Page Navigation
NASA JPL Caltech
NASA Logo - Jet Propulsion Laboratory + View the NASA Portal
+ Near-Earth Object (NEO) Program
Search JPL
JPL Home Earth Solar System Stars & Galaxies Technology
JPL Solar System Dynamics
BODIES ORBITS EPHEMERIDES TOOLS PHYSICAL DATA DISCOVERY FAQ SITE MAP
JPL Small-Body Database Browser
Search: [ help ]  
C/1989 Y1 (Skorichenko-George)
Classification: Hyperbolic Comet          SPK-ID: 1001242
Ephemeris | Orbit Diagram | Orbital Elements | Physical Parameters ]

[ show orbit diagram ]
Orbital Elements at Epoch 2447946.5 (1990-Feb-24.0) TDB
Reference: JPL 3 (heliocentric ecliptic J2000)
 Element Value Uncertainty (1-sigma)   Units 
e 1.00029455446894 8.2379e-06  
a -5327.26094045336 148.99 AU
q 1.569168517219455 2.3024e-06 AU
i 59.36586123107189 5.867e-05 deg
node 280.0093592116608 0.00015549 deg
peri 137.8333198446836 0.00014904 deg
M -.0001189590505896508 4.9906e-06 deg
tp 2447993.429872085473
(1990-Apr-11.92987209)
0.00028164 JED
period n/a
n/a
n/a
n/a
d
yr
n 2.53482580078189E-6 1.0634e-07 deg/d
Q n/a n/a AU
  Orbit Determination Parameters
   # obs. used (total)      100  
   data-arc span      1008 days (2.76 yr)  
   first obs. used      1988-06-13  
   last obs. used      1991-03-18  
   planetary ephem.      DE431  
   SB-pert. ephem.      SB431-BIG16  
   fit RMS      .93882  
   data source      ORB  
   producer      Otto Matic  
   solution date      2014-Jun-13 19:42:29  

Additional Information
 Earth MOID = .734638 AU 
[ show covariance matrix ]

Ephemeris | Orbit Diagram | Orbital Elements | Physical Parameters ]

Physical Parameter Table
Parameter Symbol Value Units Sigma Reference Notes
comet total magnitude M1 5.1 mag 1. 3 from 20 observations, assumed slope, autocmod 2.5c
comet total magnitude slope K1 13.   n/a 3 autocmod 2.5c
comet nuclear magnitude M2 11.9 mag 1. 3 from 3 observations, autocmod 2.5c
comet nuclear magnitude slope K2 5.   n/a 3 autocmod 2.5c
comet nuclear phase coefficient PC 0.03   n/a 3 autocmod 2.5c
Ephemeris | Orbit Diagram | Orbital Elements | Physical Parameters ]
ABOUT SSD CREDITS/AWARDS PRIVACY/COPYRIGHT GLOSSARY LINKS
FirstGov 2014-Oct-23 10:08 UT
(server date/time)  
NASA Home Page
Site Manager:   Donald K. Yeomans
Webmaster  Alan B. Chamberlin